Regional Weather Roundup
Issued by NWS

Home | Current Version | Previous Version | Text Only | Print | Product List | Glossary Off
Versions: 1 2 3 4 5 6 7 8 9 10 11 12 13 14 15 16 17 18 19 20 21 22 23 24 25 26 27 28 29 30 31 32 33 34 35 36 37 38 39 40 41 42 43 44 45 46 47 48 49 50

000
ASUS43 KMPX 190510
RWRMN
WEATHER ROUNDUP FOR MINNESOTA
NATIONAL WEATHER SERVICE TWIN CITIES/CHANHASSEN MN
1200 AM CDT SAT AUG 19 2017


NOTE: "FAIR" INDICATES FEW OR NO CLOUDS BELOW 12,000 FEET WITH NO
SIGNIFICANT WEATHER AND/OR OBSTRUCTIONS TO VISIBILITY. N/A MEANS
CURRENT SKY AND/OR WEATHER CONDITIONS ARE NOT AVAILABLE.

MNZ060>063-068>070-190600-
   Twin Cities Metro

CITY           SKY/WX    TMP DP  RH WIND       PRES   REMARKS
TWIN CITIES    MOCLDY    66  60  81 CALM      29.92S
ST PAUL        FAIR      61  61 100 CALM      29.92S FOG
CRYSTAL        FAIR      60  57  89 CALM      29.91R
BLAINE         FAIR      63  61  94 CALM      29.92R
LAKEVILLE      MOCLDY    55  55 100 CALM      29.93S FOG
EDEN PRAIRIE   FAIR      63  60  90 CALM      29.91S
SOUTH ST PAUL  FAIR      62  61  94 CALM      29.92S
LAKE ELMO      FAIR      59  59 100 CALM      29.94R
$$
MNZ001>005-007-008-013>017-022>024-027-028-190600-
   Northwest Minnesota

CITY           SKY/WX    TMP DP  RH WIND       PRES   REMARKS
BEMIDJI        FAIR      60  56  87 SW5       29.88S
HALLOCK        FAIR      57  54  88 CALM      29.83S
ROSEAU         FAIR      57  54  88 CALM      29.84S
WARROAD        FAIR      57  54  88 SW5       29.84S
THIEF RVR FALL FAIR      59  57  93 S5        29.87F
CROOKSTON      FAIR      57  55  94 S5        29.87S
FOSSTON        FAIR      54  54 100 S5        29.89S
DETROIT LAKES  FAIR      63  59  88 SW5       29.92S
MOORHEAD       FAIR      63  59  88 SW5       29.90S
PARK RAPIDS    FOG       56  54  93 CALM      29.90F VSB 1/2
MAHNOMEN       FAIR      57  55  94 S7        29.89S
$$
MNZ006-009>011-018-025>026-190600-
   North Central Minnesota

CITY           SKY/WX    TMP DP  RH WIND       PRES   REMARKS
BAUDETTE       FAIR      58  56  93 CALM      29.83S
FLAG ISLAND    FAIR      70  55  60 CALM      29.81S
INTL FALLS     FAIR      58  56  93 SW5       29.83S
WASKISH        FAIR      64  61  88 SW5       29.86S
BIG FORK       FAIR      57  55  94 SW3       29.87S
LONGVILLE      FAIR      55  55 100 CALM      29.89S
GRAND RAPIDS   FAIR      59  57  93 CALM      29.90S
CRANE LAKE     FAIR      54  54 100 CALM      29.85S
ORR            FAIR      57  55  94 CALM      29.83S
COOK           FAIR      59  57  94 SW3       29.86S
WALKER         FAIR      59  55  87 W6        29.89S
$$
MNZ012-019>021-037-190600-
   Northeast Minnesota

CITY           SKY/WX    TMP DP  RH WIND       PRES   REMARKS
DULUTH         FAIR      58  58 100 W7        29.87F
ELY            FAIR      57  57 100 CALM      29.85S
HIBBING        FAIR      53  53 100 S3        29.87S FOG
EVELETH        FAIR      58  54  87 W5        29.88S
DULUTH HARBOR  FAIR      63  61  94 SW10      29.86F
TWO HARBORS    FAIR      64  59  82 NW3       29.84R
SILVER BAY     FAIR      63  61  94 CALM      29.82F
GRAND MARAIS     N/A     66  59  78 N7        29.80R
G MARAIS ARPRT FAIR      57  54  88 N7        29.86R
$$
MNZ029>031-032-039>041-046>048-054>057-064-190600-
   West Central Minnesota

CITY           SKY/WX    TMP DP  RH WIND       PRES   REMARKS
FERGUS FALLS   FAIR      61  61 100 SW3       29.91S
WHEATON        FAIR      61  57  88 S7        29.94S
MORRIS         FAIR      61  59  94 CALM      29.93S
ALEXANDRIA     FAIR      60  59  96 SW6       29.95S
ELBOW LAKE     FAIR      56  56 100 S6        29.93S
WADENA         FAIR      57  57 100 CALM      29.91S
GLENWOOD       FAIR      61  57  88 W3        29.95S
APPLETON       FOG       61  57  88 CALM      29.93S VSB 1/4
BENSON         FOG       57  55  94 CALM      29.95S VSB 1/4
ORTONVILLE     FAIR      61  59  94 MISG      29.94S
MADISON          N/A     63  63 100 CALM      29.94F FOG
WILLMAR        FAIR      61  59  94 CALM      29.95S
$$
MNZ033>034-036-042>043-049>051-058-059-190600-
   Central Minnesota

CITY           SKY/WX    TMP DP  RH WIND       PRES   REMARKS
ST CLOUD       FAIR      58  58 100 CALM      29.92S
SAUK CENTRE      N/A     56  56  99 CALM      29.94S
PAYNESVILLE    FOG       57  57 100 CALM      29.94S VSB 1/4
AITKIN         FOG       52  52 100 CALM      29.89S VSB 1/4
PINE RIVER     FAIR      52  52 100 CALM      29.94S FOG
BRAINERD       FAIR      58  57  97 SW5       29.92R
STAPLES        FAIR      57  55  94 CALM      29.92R
LONG PRAIRIE   FAIR      54  54 100 S3        29.94S FOG
LITTLE FALLS   FAIR      55  54  94 CALM      29.93S FOG
LITCHFIELD     FAIR      61  61 100 CALM      29.94S
BUFFALO        FAIR      59  57  92 CALM      29.94R
MAPLE LAKE     FOG       59  58  97 CALM      29.93S VSB 1
HUTCHINSON     FAIR      59  59  99 CALM      29.94F
$$
MNZ037-044-045-052-053-190600-
   East Central Minnesota

CITY           SKY/WX    TMP DP  RH WIND       PRES   REMARKS
PRINCETON      FAIR      57  57 100 CALM      29.92S
MORA           FAIR      55  54  94 CALM      29.93R
CAMBRIDGE      FAIR      63  61  94 CALM      29.92S FOG
RUSH CITY      FAIR      60  59  96 CALM      29.91S
MOOSE LAKE       N/A     52  50  93 CALM      29.88F FOG
HINCKLEY       FOG       55  55 100 CALM      29.91S VSB 3/4
CLOQUET        FAIR      59  55  88 W3        29.89S
MCGREGOR       FAIR      55  54  94 CALM      29.90F
$$
MNZ071>073-080-081-089-090-097-098-190600-
   Southwest Minnesota

CITY           SKY/WX    TMP DP  RH WIND       PRES   REMARKS
MONTEVIDEO     FAIR      57  57 100 W3        29.94S
GRANITE FALLS  FOG       58  58 100 SW5       29.96R VSB 1/2
CANBY          FAIR      61  60  97 CALM      29.96F
MARSHALL       FOG       58  58 100 W7        29.96R VSB 1/4
REDWOOD FALLS  FAIR      58  56  93 NW6       29.92S
OLIVIA         FAIR      55  55 100 W3        29.93R
PIPESTONE      MOCLDY    64  61  88 NE6       29.96F
WINDOM         FOG       57  55  94 CALM      29.96R VSB 1/4
WORTHINGTON    FAIR      58  57  97 CALM      29.96R
JACKSON        FAIR      55  55 100 CALM      29.90R
TRACY          FOG       59  59 100 W3        29.96R VSB 1/4
SLAYTON        MOCLDY    59  55  86 NW7       29.98R
$$
MNZ065>067-074>077-082>085-091>093-190600-
   South Central Minnesota

CITY           SKY/WX    TMP DP  RH WIND       PRES   REMARKS
MANKATO        FAIR      60  58  92 CALM      29.94S
NEW ULM        MOCLDY    59  57  94 SW5       29.93S
ST JAMES       FAIR      57  57 100 CALM      29.95R
FAIRMONT       FAIR      59  58  96 W3        29.94F
GLENCOE        FAIR      61  61 100 CALM      29.92S
FARIBAULT        N/A     57  57 100 CALM      29.94R FOG
OWATONNA       FAIR      61  57  88 CALM      29.93F
WASECA         FAIR      59  55  88 CALM      29.95S FOG
ALBERT LEA     CLOUDY    64  63  94 CALM      29.94S
$$
MNZ078>079-086>088-094>096-190600-
   Southeast Minnesota

CITY           SKY/WX    TMP DP  RH WIND       PRES   REMARKS
ROCHESTER      FAIR      58  56  93 SE3       29.96S
RED WING       FAIR      59  57  94 CALM      29.92S FOG
STANTON        FOG       58  56  95 CALM      29.92F VSB 3/4
DODGE CENTER   FAIR      57  55  94 CALM      29.95S
WINONA         FAIR      61  59  94 CALM      29.94S
AUSTIN         FAIR      57  55  94 CALM      29.94S
PRESTON        FAIR      58  55  92 CALM      29.96S
$$
ABBREVIATIONS USED IN REMARKS
   TC - TEMPERATURES IN CELSIUS
  WCI - WIND CHILL INDEX
   HX - HEAT INDEX
  VSB - VISIBILITY
$$



USA.gov is the U.S. government's official web portal to all federal, state and local government web resources and services.